Content
SEND FEEDBACK

Daily
Averages
Monthly
Summary
United States of America

CAMP QUEZON, GUAM


Home > North America > United States > Guam
Elevation: 82 meters     Latitude: 13 28N     Longitude: 144 48E

WEATHER
 
SELECT A DAY
Number of Records: 208,807;   Date Range: 1/1/95 - 7/7/14
 
SHARE

PRINT THIS DATA

[ ← Previous Day ]
WEATHER ALMANAC - 14 JANUARY, 2013
[ Next Day → ]
[ °F ]   °C
Weather ElementAverageHighLow
Temperature27.3 °C29 °C (1:31 pm)25.6 °C (3:54 am)
Dewpoint22.2 °C23 °C (1:31 pm)21.7 °C (12:54 pm)
Humidity73.8 %84 % (3:54 am)65 % (12:54 pm)
Barometer1010.8 hPa1011.9 hPa (8:54 am)1009.5 hPa (2:54 pm)
Wind Speed18 km/h29.6 km/h (9:54 am)
Wind Gust40.7 km/h (10:54 am)
Weather ElementAverage
Visibility16.1 km
Wind DirectionE (89.6 °)

Weather ElementTotal
Precipitation0.25 mm
Cooling Degree Days9 (Base 18.3)
Growing Degree Days17.3 (Base 10)
Averaged from 23 records on 14 January, 2013
WEATHER CONDITIONS BREAKOUT
WIND DIRECTION BREAKOUT
WEATHER BY HOUR - 14 JANUARY, 2013
[ °F ]   °C
Local TimeTemperatureDewpointHumidityBarometerVisibilityWind DirectionWind SpeedGust SpeedPrecipitationEventsConditions
1:54 AM26.1 °C22.2 °C79 %1011.2 hPa16.1 kmEast (80°)11.1 km/hPartly Cloudy
2:54 AM26.1 °C22.2 °C79 %1010.5 hPa16.1 kmENE (70°)14.8 km/hScattered Clouds
3:54 AM25.6 °C22.8 °C84 %1010.8 hPa16.1 kmEast (80°)16.7 km/h0.25 mmMostly Cloudy
4:54 AM26.1 °C22.2 °C79 %1010.8 hPa16.1 kmENE (70°)22.2 km/hMostly Cloudy
5:54 AM25.6 °C22.2 °C81 %1010.8 hPa16.1 kmENE (70°)18.5 km/hPartly Cloudy
7:54 AM26.7 °C22.2 °C76 %1011.5 hPa16.1 kmEast (80°)22.2 km/hPartly Cloudy
8:54 AM27.8 °C22.2 °C71 %1011.9 hPa16.1 kmENE (70°)25.9 km/hClear
9:54 AM28.3 °C22.2 °C69 %1011.5 hPa16.1 kmENE (70°)29.6 km/h38.9 km/hPartly Cloudy
10:54 AM28.9 °C22.2 °C67 %1011.2 hPa16.1 kmEast (80°)27.8 km/h40.7 km/hPartly Cloudy
11:54 AM28.9 °C22.2 °C67 %1010.8 hPa16.1 kmEast (80°)27.8 km/h38.9 km/hPartly Cloudy
12:54 PM28.9 °C21.7 °C65 %1010.2 hPa16.1 kmEast (90°)24.1 km/hScattered Clouds
1:31 PM29 °C23 °C70 %1010.5 hPa16.1 kmESE (110°)24.1 km/hMostly Cloudy
1:34 PM29 °C23 °C70 %1010.2 hPa16.1 kmEast (100°)27.8 km/h37 km/hPartly Cloudy
2:54 PM28.9 °C22.2 °C67 %1009.5 hPa16.1 kmEast (100°)20.4 km/h35.2 km/hPartly Cloudy
3:54 PM28.9 °C21.7 °C65 %1009.8 hPa16.1 kmESE (110°)18.5 km/hPartly Cloudy
4:54 PM28.3 °C21.7 °C67 %1010.2 hPa16.1 kmEast (100°)16.7 km/hClear
5:54 PM27.2 °C21.7 °C72 %1010.8 hPa16.1 kmEast (90°)14.8 km/hPartly Cloudy
6:54 PM26.7 °C21.7 °C74 %1011.2 hPa16.1 kmEast (80°)9.3 km/hPartly Cloudy
7:54 PM26.1 °C21.7 °C77 %1011.2 hPa16.1 kmEast (90°)7.4 km/hClear
8:54 PM26.1 °C22.2 °C79 %1011.5 hPa16.1 kmEast (100°)9.3 km/hPartly Cloudy
9:54 PM26.1 °C22.2 °C79 %1011.5 hPa16.1 kmESE (110°)9.3 km/hScattered Clouds
10:54 PM26.1 °C22.2 °C79 %1011.5 hPa16.1 kmESE (110°)11.1 km/hClear
11:54 PM25.6 °C22.2 °C81 %1011.5 hPa16.1 kmESE (120°)5.6 km/hClear
Hourly data recorded from PGUM, located 0 kilometers away from Camp Quezon, Guam







STORIES FROM OUR PARTNERS